• In Uzbekistan
  • List of Countries
  • For 7 days
  • Water Temperature
  • Satellite Maps
  • Weather Map
  • Weather Widgets
  • user-avatar
    Login

    Hourly Weather Bad Dürrheim

    Today, 26 April, Friday

    Time Temperature Precipitation Wind Pressure Humidity
    00:00 +8°C° 0 mm 1 mps 695 mmHg 97%
    01:00 +6°C° 0 mm 2 mps 695 mmHg 95%
    02:00 +6°C° 0.1 mm 2 mps 696 mmHg 94%
    03:00 +7°C° 0.1 mm 1 mps 696 mmHg 94%
    04:00 +7°C° 0.1 mm 1 mps 696 mmHg 93%
    05:00 +6°C° 1.2 mm 2 mps 696 mmHg 94%
    06:00 +6°C° 1.2 mm 2 mps 697 mmHg 95%
    07:00 +5°C° 1.2 mm 2 mps 697 mmHg 96%
    08:00 +5°C° 1.9 mm 2 mps 697 mmHg 95%
    09:00 +4°C° 1.9 mm 3 mps 698 mmHg 94%
    10:00 +4°C° 1.9 mm 3 mps 698 mmHg 93%
    11:00 +5°C° 0.9 mm 3 mps 699 mmHg 92%
    12:00 +5°C° 0.9 mm 3 mps 700 mmHg 91%
    13:00 +7°C° 0.9 mm 3 mps 700 mmHg 90%
    14:00 +7°C° 0.2 mm 3 mps 700 mmHg 89%
    15:00 +7°C° 0.2 mm 3 mps 700 mmHg 87%
    16:00 +8°C° 0.2 mm 3 mps 701 mmHg 85%
    17:00 +7°C° 0 mm 2 mps 701 mmHg 87%
    18:00 +7°C° 0 mm 2 mps 701 mmHg 88%
    19:00 +8°C° 0 mm 1 mps 701 mmHg 90%
    20:00 +7°C° 0 mm 1 mps 701 mmHg 91%
    21:00 +6°C° 0 mm 1 mps 701 mmHg 92%
    22:00 +5°C° 0 mm 1 mps 701 mmHg 93%
    23:00 +4°C° 0 mm 2 mps 701 mmHg 93%

    Tomorrow, 27 April, Saturday

    Time Temperature Precipitation Wind Pressure Humidity
    00:00 +4°C° 0 mm 2 mps 702 mmHg 92%
    01:00 +3°C° 0 mm 2 mps 702 mmHg 92%
    02:00 +3°C° 0 mm 2 mps 702 mmHg 93%
    03:00 +3°C° 0 mm 2 mps 701 mmHg 94%
    04:00 +3°C° 0 mm 2 mps 701 mmHg 96%
    05:00 +4°C° 0 mm 2 mps 702 mmHg 93%
    06:00 +4°C° 0 mm 3 mps 702 mmHg 91%
    07:00 +5°C° 0 mm 3 mps 702 mmHg 89%
    08:00 +5°C° 0.1 mm 3 mps 702 mmHg 87%
    09:00 +6°C° 0.1 mm 4 mps 702 mmHg 85%
    10:00 +7°C° 0.1 mm 5 mps 702 mmHg 82%
    11:00 +7°C° 0.1 mm 5 mps 702 mmHg 77%
    12:00 +8°C° 0.1 mm 5 mps 702 mmHg 72%
    13:00 +9°C° 0.1 mm 6 mps 702 mmHg 67%
    14:00 +9°C° 0.1 mm 6 mps 702 mmHg 70%
    15:00 +8°C° 0.1 mm 6 mps 702 mmHg 73%
    16:00 +8°C° 0.1 mm 6 mps 702 mmHg 76%
    17:00 +7°C° 0.1 mm 6 mps 702 mmHg 78%
    18:00 +6°C° 0.1 mm 5 mps 702 mmHg 81%
    19:00 +5°C° 0.1 mm 5 mps 702 mmHg 83%
    20:00 +4°C° 0.3 mm 4 mps 703 mmHg 86%
    21:00 +4°C° 0.3 mm 3 mps 703 mmHg 89%
    22:00 +4°C° 0.3 mm 2 mps 703 mmHg 93%
    23:00 +4°C° 0.4 mm 2 mps 703 mmHg 93%

    Day after tomorrow, 28 April, Sunday

    Time Temperature Precipitation Wind Pressure Humidity
    00:00 +3°C° 0.4 mm 2 mps 703 mmHg 94%
    01:00 +4°C° 0.4 mm 1 mps 703 mmHg 95%
    02:00 +4°C° 0.5 mm 1 mps 703 mmHg 95%
    03:00 +3°C° 0.5 mm 2 mps 703 mmHg 95%
    04:00 +3°C° 0.5 mm 2 mps 703 mmHg 95%
    05:00 +3°C° 0.3 mm 2 mps 703 mmHg 94%
    06:00 +3°C° 0.3 mm 2 mps 703 mmHg 93%
    07:00 +2°C° 0.3 mm 3 mps 703 mmHg 92%
    08:00 +3°C° 0.3 mm 3 mps 703 mmHg 88%
    09:00 +4°C° 0.3 mm 4 mps 703 mmHg 84%
    10:00 +5°C° 0.3 mm 4 mps 703 mmHg 80%
    11:00 +5°C° 0.4 mm 4 mps 703 mmHg 79%
    12:00 +5°C° 0.4 mm 4 mps 702 mmHg 78%
    13:00 +6°C° 0.4 mm 4 mps 702 mmHg 78%
    14:00 +5°C° 0.5 mm 4 mps 702 mmHg 81%
    15:00 +5°C° 0.5 mm 3 mps 702 mmHg 84%
    16:00 +4°C° 0.5 mm 3 mps 702 mmHg 87%
    17:00 +4°C° 0.4 mm 3 mps 702 mmHg 90%
    18:00 +4°C° 0.4 mm 2 mps 702 mmHg 92%
    19:00 +5°C° 0.4 mm 1 mps 702 mmHg 94%
    20:00 +5°C° 0.5 mm 1 mps 702 mmHg 95%
    21:00 +4°C° 0.5 mm 1 mps 702 mmHg 96%
    22:00 +4°C° 0.5 mm 1 mps 702 mmHg 97%
    23:00 +4°C° 1 mm 1 mps 702 mmHg 97%

    29 April, Monday

    Time Temperature Precipitation Wind Pressure Humidity
    00:00 +4°C° 1 mm 1 mps 702 mmHg 98%
    01:00 +3°C° 1 mm 0 mps 702 mmHg 98%
    02:00 +3°C° 0.6 mm 0 mps 702 mmHg 98%
    03:00 +2°C° 0.6 mm 0 mps 702 mmHg 98%
    04:00 +2°C° 0.6 mm 0 mps 702 mmHg 98%
    05:00 +2°C° 0 mm 0 mps 702 mmHg 97%
    06:00 +3°C° 0 mm 0 mps 702 mmHg 96%
    07:00 +3°C° 0 mm 0 mps 702 mmHg 95%
    08:00 +4°C° 0.1 mm 0 mps 702 mmHg 91%
    09:00 +5°C° 0.1 mm 0 mps 702 mmHg 87%
    10:00 +7°C° 0.1 mm 0 mps 702 mmHg 82%
    11:00 +9°C° 0.6 mm 1 mps 702 mmHg 80%
    12:00 +9°C° 0.6 mm 1 mps 702 mmHg 78%
    13:00 +10°C° 0.6 mm 1 mps 702 mmHg 76%
    14:00 +10°C° 0.6 mm 1 mps 702 mmHg 75%
    15:00 +11°C° 0.6 mm 1 mps 702 mmHg 74%
    16:00 +10°C° 0.6 mm 2 mps 701 mmHg 73%
    17:00 +9°C° 0.2 mm 1 mps 701 mmHg 78%
    18:00 +8°C° 0.2 mm 1 mps 701 mmHg 83%
    19:00 +7°C° 0.2 mm 1 mps 701 mmHg 88%
    20:00 +6°C° 0.1 mm 1 mps 702 mmHg 90%
    21:00 +5°C° 0.1 mm 1 mps 702 mmHg 92%
    22:00 +4°C° 0.1 mm 1 mps 702 mmHg 94%
    23:00 +3°C° 0 mm 1 mps 702 mmHg 94%

    30 April, Tuesday

    Time Temperature Precipitation Wind Pressure Humidity
    00:00 +3°C° 0 mm 1 mps 702 mmHg 94%
    01:00 +3°C° 0 mm 1 mps 702 mmHg 94%
    02:00 +2°C° 0 mm 1 mps 702 mmHg 94%
    03:00 +1°C° 0 mm 0 mps 702 mmHg 93%
    04:00 +1°C° 0 mm 0 mps 702 mmHg 93%
    05:00 +2°C° 0 mm 0 mps 702 mmHg 91%
    06:00 +4°C° 0 mm 0 mps 702 mmHg 90%
    07:00 +5°C° 0 mm 0 mps 702 mmHg 88%
    08:00 +8°C° 0 mm 1 mps 702 mmHg 82%
    09:00 +9°C° 0 mm 1 mps 702 mmHg 75%
    10:00 +10°C° 0 mm 2 mps 702 mmHg 69%
    11:00 +10°C° 0.1 mm 2 mps 702 mmHg 69%
    12:00 +10°C° 0.1 mm 2 mps 702 mmHg 69%
    13:00 +12°C° 0.1 mm 2 mps 701 mmHg 69%
    14:00 +12°C° 0.1 mm 2 mps 701 mmHg 70%
    15:00 +12°C° 0.1 mm 2 mps 701 mmHg 71%
    16:00 +12°C° 0.1 mm 2 mps 701 mmHg 72%
    17:00 +10°C° 0 mm 2 mps 701 mmHg 78%
    18:00 +9°C° 0 mm 2 mps 701 mmHg 84%
    19:00 +9°C° 0 mm 1 mps 700 mmHg 90%
    20:00 +8°C° 0 mm 1 mps 701 mmHg 92%
    21:00 +7°C° 0 mm 1 mps 701 mmHg 94%
    22:00 +4°C° 0 mm 0 mps 701 mmHg 96%
    23:00 +4°C° 0 mm 0 mps 701 mmHg 96%

    1 May, Wednesday

    Time Temperature Precipitation Wind Pressure Humidity
    00:00 +4°C° 0 mm 0 mps 701 mmHg 96%
    01:00 +4°C° 0 mm 0 mps 700 mmHg 96%
    02:00 +4°C° 0 mm 0 mps 700 mmHg 95%
    03:00 +3°C° 0 mm 0 mps 700 mmHg 95%
    04:00 +3°C° 0 mm 0 mps 700 mmHg 94%
    05:00 +4°C° 0 mm 0 mps 700 mmHg 93%
    06:00 +6°C° 0 mm 0 mps 700 mmHg 91%
    07:00 +7°C° 0 mm 0 mps 700 mmHg 89%
    08:00 +9°C° 0 mm 0 mps 700 mmHg 80%
    09:00 +11°C° 0 mm 0 mps 700 mmHg 72%
    10:00 +14°C° 0 mm 0 mps 700 mmHg 63%
    11:00 +16°C° 0 mm 1 mps 700 mmHg 58%
    12:00 +16°C° 0 mm 1 mps 700 mmHg 54%
    13:00 +18°C° 0 mm 1 mps 700 mmHg 49%
    14:00 +18°C° 0 mm 1 mps 700 mmHg 49%
    15:00 +18°C° 0 mm 1 mps 699 mmHg 49%
    16:00 +18°C° 0 mm 1 mps 699 mmHg 49%
    17:00 +15°C° 0 mm 1 mps 699 mmHg 58%
    18:00 +13°C° 0 mm 1 mps 698 mmHg 66%
    19:00 +12°C° 0 mm 1 mps 698 mmHg 74%
    20:00 +10°C° 0 mm 1 mps 698 mmHg 77%
    21:00 +9°C° 0 mm 1 mps 698 mmHg 80%
    22:00 +7°C° 0 mm 1 mps 698 mmHg 83%
    23:00 +7°C° 0 mm 1 mps 697 mmHg 83%
    Show more